Preview of NWS' New Version of Forecast
This preview is not operational and should not be used for support decisions.
Latest weather observations around

San Jose, San Jose International Airport (KSJC)

Using English Units (Switch to International System of Units)
Date/ Time (PDT) Wind (mph) Vis. (mi) Weather Sky Cond. Temp (°F) Rel. Humidity Wind Chill (°F) Heat Index (°F) Pressure Precip. (in)
Air Dwpt 6 hour Altimeter (inHg) Sea level (inHg) 1 hr 3 hr 6 hr
Max Min
Apr 26 06:53 SSE 5 8 Partly Cloudy FEW007 FEW090 SCT130 52 51     97%     29.97 29.97      
Apr 26 05:53 Calm 10 Partly Cloudy SCT090 54 50     86%     29.96 29.96      
Apr 26 04:53 Calm 10 Clear CLR 53 51     93%     29.96 29.96      
Apr 26 03:53 Calm 10 Clear CLR 54 53     97%     29.96 29.96      
Apr 26 02:53 Calm 10 Clear CLR 55 53     93%     29.97 29.96      
Apr 26 01:53 Calm 10 Clear CLR 54 52     93%     29.98 29.98      
Apr 26 00:53 Calm 10 Clear CLR 55 53     93%     29.98 29.98      
Apr 25 23:53 NNW 7 10 Mostly Clear FEW001 55 53     93%     29.99 29.98      
Apr 25 22:53 WNW 5 10 Mostly Clear FEW001 FEW110 56 54     93%     29.99 29.98      
Apr 25 21:53 NW 7 10 Mostly Clear FEW001 FEW110 56 55     97%     29.99 29.99      
Apr 25 20:53 NW 9 10 Mostly Clear FEW001 FEW100 58 55     90%     29.97 29.97      
Apr 25 19:53 NW 9 10 Clear   61 55     81%     29.95 29.95      
Apr 25 18:53 WNW 13 10 Mostly Clear FEW001 FEW090 67 57     71%     29.94 29.93      
Apr 25 17:53 NW 11 10 Partly Cloudy FEW001 FEW055 SCT090 70 59     68%     29.93 29.93      
Apr 25 16:53 NW 11 10 Partly Cloudy FEW001 FEW055 SCT090 73 60     64%   73 29.93 29.92      
Apr 25 15:53 NW 15 10 Mostly Clear FEW001 FEW055 FEW090 74 61     64%   74 29.93 29.92      
Apr 25 14:53 NNW 13 10 Mostly Clear FEW001 FEW055 FEW090 76 61     60%   76 29.93 29.93      
Apr 25 13:53 NW 9 10 Mostly Clear FEW055 FEW090 77 62     60%   77 29.94 29.93      
Apr 25 12:53 NW 10 10 Mostly Clear FEW055 FEW090 76 61     60%   76 29.94 29.93      
Apr 25 11:53 NW 8 10 Mostly Clear FEW080 75 60     60%   75 29.94 29.94      
Apr 25 10:53 E 3 9 Mostly Clear FEW080 74 56     53%   74 29.95 29.95      
Apr 25 09:53 Calm 9 Mostly Clear FEW080 68 55     63%     29.95 29.95      
Apr 25 08:53 Calm 9 Mostly Clear FEW080 65 56     73%     29.96 29.95      
Apr 25 07:53 Calm 9 Mostly Clear FEW080 61 56     83%     29.96 29.96      
Apr 25 06:53 Calm 9 Clear CLR 57 54     89%     29.95 29.95      
Apr 25 05:53 Calm 10 Clear CLR 57 55     93%     29.94 29.93      
Apr 25 04:53 Calm 10 Clear CLR 57 54     89%     29.93 29.93      
Apr 25 03:53 NNW 5 10 Clear CLR 57 55     93%     29.93 29.93      
Apr 25 02:53 NW 6 10 Clear CLR 58 56     93%     29.93 29.93      
Apr 25 01:53 NW 7 10 Clear CLR 58 57     97%     29.93 29.93      
Apr 25 00:53 NW 7 10 Clear CLR 60 58     93%     29.94 29.93      
Apr 24 23:53 NNW 5 10 Clear CLR 62 58     86%     29.93 29.93      
Apr 24 22:53 NW 6 10 Clear CLR 64 56     75%     29.93 29.93      
Apr 24 21:53 WNW 6 10 Clear CLR 66 54     65%     29.92 29.92      
Apr 24 20:53 WNW 8 10 Clear CLR 69 55     61%     29.9 29.9      
Apr 24 19:53 NW 11 10 Mostly Clear FEW035 71 57     61%   71 29.89 29.89      
Apr 24 18:53 NNW 8 10 Mostly Clear FEW060 FEW090 77 57     50%   77 29.89 29.88      
Apr 24 17:53   10 Mostly Clear FEW012 FEW060 FEW090 80 60     51%   81 29.88 29.88      
Apr 24 16:53 NNW 14 10 Mostly Clear FEW060 83 61     48%   83 29.88 29.88      
Apr 24 15:53 NW 15 10 Mostly Clear FEW060 84 63     49%   85 29.89 29.88      
Apr 24 14:53 NNW 15 10 Mostly Clear FEW060 85 65     51%   87 29.9 29.9      
Apr 24 13:53 5 10 Mostly Clear FEW060 89 61     39%   89 29.9 29.9      
Apr 24 12:53 Calm 10 Mostly Clear FEW060 88 56     34%   86 29.92 29.92      
Apr 24 11:53 Calm 10 Clear CLR 85 57     39%   84 29.94 29.93      
Apr 24 10:53 Calm 10 Clear CLR 80 55     42%   80 29.95 29.95      
Apr 24 09:53 Calm 10 Clear CLR 75 56     52%   75 29.95 29.95      
Apr 24 08:53 S 3 10 Clear CLR 70 56     61%     29.95 29.95      
Apr 24 07:53 Calm 10 Clear CLR 66 55     68%     29.96 29.95      
Apr 24 06:53 SW 3 10 Mostly Clear FEW075 61 54     78%     29.95 29.94      
Apr 24 05:53 S 3 10 Mostly Clear FEW075 60 55     83%     29.93 29.93      
Apr 24 04:53 Calm 10 Clear CLR 62 53     72%     29.92 29.92      
Apr 24 03:53 Calm 10 Clear CLR 63 59     87%     29.92 29.92      
Apr 24 02:53 NNW 3 10 Clear CLR 65        %     29.92 29.91      
Apr 24 01:53 Calm 10 Clear CLR 68 54     61%     29.92 29.92      
Apr 24 00:53 SSE 5 10 Clear CLR 65 54     68%     29.93 29.93      
Apr 23 23:53 SSE 3 10 Mostly Clear FEW075 68 55     63%     29.93 29.92      
Apr 23 22:53 W 3 10 Mostly Clear FEW075 74 54     50%   73 29.93 29.93      
Apr 23 21:53 SW 3 10 Mostly Clear FEW075 76 50     40%   75 29.93 29.93      
Apr 23 20:53 NNW 5 10 Mostly Clear FEW075 FEW180 77 48     36%   76 29.92 29.91      
Apr 23 19:53 N 8 10 Partly Cloudy FEW080 SCT180 80 50     35%   79 29.9 29.89      
Apr 23 18:53 N 13 10 Partly Cloudy FEW080 SCT110 SCT160 82 55     40%   81 29.9 29.9      
Apr 23 17:53 NW 10 10 Partly Cloudy FEW080 SCT110 85 57     39%   84 29.91 29.91      
Apr 23 16:53 NNW 10 10 Partly Cloudy FEW080 SCT110 87 54     32%   85 29.91 29.91      
Apr 23 15:53 6 10 Partly Cloudy FEW080 SCT110 SCT160 87 54     32%   85 29.92 29.92      
Apr 23 14:53 3 10 Partly Cloudy FEW080 SCT110 SCT160 87 52     30%   85 29.94 29.94      
Apr 23 13:53 NW 5 10 Partly Cloudy FEW080 SCT110 SCT160 86 53     32%   84 29.96 29.95      
Notice The following observation data may not be complete
Apr 23 12:53     Partly Cloudy FEW080 SCT110 SCT160          %     29.97 29.97      
Apr 23 11:53 NW 7 10 Partly Cloudy FEW080 SCT110 SCT160 81 53     38%   80 29.99 29.99      
Apr 23 10:53 NNW 6 10 Partly Cloudy FEW080 SCT110 SCT180 77 52     42%   76 30.01 30      
Apr 23 09:53 Calm 10 Partly Cloudy FEW080 FEW110 SCT180 71 50     47%   70 30.01 30.01      
Apr 23 08:53 Calm 10 Partly Cloudy FEW080 FEW110 SCT150 66 51     59%     30.01 30.01      
Apr 23 07:53 S 3 10 Partly Cloudy FEW080 FEW110 SCT150 61 51     70%     30.01 30.01      
Apr 23 06:53 Calm 10 Partly Cloudy FEW080 FEW110 SCT150 56 48     75%     30 30      
Apr 23 05:53 S 3 10 Mostly Clear FEW080 56 48     75%     29.99 29.99      
May 15 09:53 Calm 10 Cloudy FEW021 BKN028 OVC035 60 47     62%     30.05 30.05      
May 14 23:53 WNW 11 10 Mostly Cloudy FEW010 SCT024 BKN045 56 49     77%     30.01 30.01      
May 14 15:53 WNW 13 10 Mostly Clear FEW025 FEW032 67 51     57%     29.96 29.96      
May 14 08:53 Calm 10 Cloudy FEW012 BKN019 OVC024 59 49     69%     30 30      
May 13 19:31 NW 14 10 Mostly Clear FEW008 63 50     63%     29.97        
May 13 02:53 SE 11 10 Clear CLR 56 49     77%     29.95 29.95      
May 12 00:53 E 3 10 Clear CLR 63 49     60%     29.81 29.8      
Jun 11 20:53 WSW 13 10 Clear   58 45     62%     29.98 29.98      
Jun 10 18:53   10 Partly Cloudy FEW025 SCT037 SCT065 66 45     47%     29.93 29.93      
Jun 10 12:53   10 Partly Cloudy FEW015 SCT032 SCT050 69 47     45%     29.98 29.97      
Notice The following observation data may not be complete
Jun 10 03:34   10 Mostly Cloudy BKN023          %              
Jun 09 00:53 NW 5 10 Clear   64 61     90%     29.96 29.96      
Jun 08 16:53 ESE 8 10 Cloudy FEW009 BKN038 OVC075 70 58     66%     29.99 29.98     0
Jun 07 14:53   10 Mostly Cloudy FEW050 SCT090 BKN130 71 53     53%   70 29.92 29.91      
Jun 07 06:53 Calm 7 Mostly Cloudy FEW001 SCT007 BKN010 58 52     81%     29.93 29.92      
Jun 06 04:53 NW 5 9 Clear CLR 55 52     89%     29.93 29.92      
Jun 06 03:53 NNW 6 9 Clear CLR 56 52     87%     29.92 29.92      
Jun 05 20:53 W 9 10 Partly Cloudy FEW002 FEW065 SCT110 65 53     65%     29.89 29.88      
Jun 05 12:53 NW 10 10 Mostly Clear FEW035 FEW090 79 51     38%   78 29.89 29.88